Location: Caltech
(34.1382°N, 118.1253°W)
Time: 06:09:03
(UTC-07:00)

CZ-2C R/B - Visible Passes

Search period start: 30 July 2014 00:00
Search period end: 09 August 2014 00:00
Orbit: 669 x 787 km, 98.1° (Epoch: 29 July)

Date Brightness Start Highest point End Pass type
(mag) Time Alt. Az. Time Alt. Az. Time Alt. Az.
30 Jul 2.7 20:16:36 10° S 20:21:09 66° WSW 20:25:41 10° NNW visible
31 Jul 4.9 21:09:06 10° SW 21:12:06 17° W 21:15:06 10° NW visible
01 Aug 2.9 20:19:53 10° S 20:24:23 60° W 20:28:54 10° NNW visible
02 Aug 4.9 21:12:37 10° SW 21:15:22 16° W 21:18:07 10° WNW visible
03 Aug 3.0 20:23:10 10° S 20:27:37 54° W 20:32:06 10° NNW visible
04 Aug 5.0 21:16:10 10° SW 21:18:37 14° W 21:21:05 10° WNW visible
05 Aug 3.2 20:26:27 10° S 20:30:51 49° W 20:35:18 10° NNW visible
06 Aug 5.1 21:19:46 10° WSW 21:21:53 13° W 21:24:01 10° WNW visible
07 Aug 3.4 20:29:44 10° S 20:34:05 45° W 20:38:29 10° NNW visible
08 Aug 5.2 21:23:27 10° WSW 21:25:09 12° W 21:26:51 10° WNW visible
